When you browse on this site, cookies collect data to enhance your experience and personalize the content and advertising you see.
Visit our Privacy Policy to learn more. By continuing to use the site, you agree to this use of cookies and data.

Hourly Weather Wantouqiao

Today, 6 July, Monday

Time Temperature Precipitation Wind Pressure Humidity
00:00 +27°C° 0 mm 1 mps 722 mmHg 90%
01:00 +26°C° 0 mm 1 mps 722 mmHg 91%
02:00 +26°C° 0 mm 1 mps 722 mmHg 91%
03:00 +26°C° 0 mm 1 mps 722 mmHg 91%
04:00 +26°C° 0 mm 1 mps 722 mmHg 91%
05:00 +27°C° 0 mm 1 mps 722 mmHg 88%
06:00 +28°C° 0 mm 1 mps 723 mmHg 85%
07:00 +29°C° 0 mm 3 mps 723 mmHg 84%
08:00 +31°C° 0 mm 2 mps 723 mmHg 77%
09:00 +32°C° 0 mm 2 mps 723 mmHg 69%
10:00 +35°C° 0 mm 2 mps 723 mmHg 62%
11:00 +35°C° 0.1 mm 2 mps 723 mmHg 61%
12:00 +36°C° 0.1 mm 3 mps 723 mmHg 60%
13:00 +36°C° 0.1 mm 3 mps 723 mmHg 59%
14:00 +36°C° 0.3 mm 2 mps 722 mmHg 61%
15:00 +36°C° 0.3 mm 2 mps 722 mmHg 63%
16:00 +36°C° 0.3 mm 2 mps 722 mmHg 66%
17:00 +34°C° 0.3 mm 2 mps 722 mmHg 72%
18:00 +31°C° 0.3 mm 1 mps 722 mmHg 78%
19:00 +29°C° 0.3 mm 1 mps 723 mmHg 84%
20:00 +29°C° 0 mm 1 mps 723 mmHg 86%
21:00 +28°C° 0 mm 1 mps 723 mmHg 88%
22:00 +28°C° 0 mm 1 mps 724 mmHg 89%
23:00 +27°C° 0 mm 1 mps 724 mmHg 89%

Tomorrow, 7 July, Tuesday

Time Temperature Precipitation Wind Pressure Humidity
00:00 +27°C° 0 mm 1 mps 724 mmHg 90%
01:00 +27°C° 0 mm 1 mps 724 mmHg 90%
02:00 +27°C° 0 mm 1 mps 724 mmHg 90%
03:00 +27°C° 0 mm 1 mps 723 mmHg 90%
04:00 +27°C° 0 mm 1 mps 723 mmHg 90%
05:00 +27°C° 0 mm 1 mps 724 mmHg 88%
06:00 +28°C° 0 mm 1 mps 724 mmHg 87%
07:00 +28°C° 0 mm 1 mps 725 mmHg 85%
08:00 +29°C° 0 mm 1 mps 725 mmHg 80%
09:00 +30°C° 0 mm 1 mps 725 mmHg 76%
10:00 +31°C° 0 mm 1 mps 725 mmHg 72%
11:00 +32°C° 0 mm 1 mps 725 mmHg 71%
12:00 +32°C° 0 mm 1 mps 725 mmHg 71%
13:00 +32°C° 0 mm 1 mps 724 mmHg 71%
14:00 +32°C° 0 mm 1 mps 724 mmHg 72%
15:00 +32°C° 0 mm 1 mps 724 mmHg 74%
16:00 +30°C° 0 mm 0 mps 723 mmHg 76%
17:00 +29°C° 0.1 mm 0 mps 723 mmHg 80%
18:00 +30°C° 0.1 mm 1 mps 724 mmHg 83%
19:00 +29°C° 0.1 mm 1 mps 724 mmHg 87%
20:00 +28°C° 0 mm 1 mps 724 mmHg 88%
21:00 +26°C° 0 mm 0 mps 724 mmHg 89%
22:00 +26°C° 0 mm 0 mps 725 mmHg 89%
23:00 +26°C° 0.3 mm 0 mps 724 mmHg 90%

Day after tomorrow, 8 July, Wednesday

Time Temperature Precipitation Wind Pressure Humidity
00:00 +25°C° 0.3 mm 0 mps 724 mmHg 91%
01:00 +27°C° 0.3 mm 1 mps 724 mmHg 91%
02:00 +27°C° 0.2 mm 1 mps 723 mmHg 92%
03:00 +27°C° 0.2 mm 1 mps 723 mmHg 92%
04:00 +27°C° 0.2 mm 1 mps 723 mmHg 93%
05:00 +27°C° 0 mm 1 mps 723 mmHg 91%
06:00 +28°C° 0 mm 1 mps 723 mmHg 90%
07:00 +28°C° 0 mm 1 mps 723 mmHg 89%
08:00 +29°C° 0 mm 1 mps 724 mmHg 83%
09:00 +30°C° 0 mm 1 mps 724 mmHg 78%
10:00 +32°C° 0 mm 1 mps 724 mmHg 73%
11:00 +31°C° 0.5 mm 1 mps 723 mmHg 77%
12:00 +30°C° 0.5 mm 1 mps 723 mmHg 82%
13:00 +30°C° 0.5 mm 1 mps 722 mmHg 87%
14:00 +30°C° 0.9 mm 1 mps 722 mmHg 87%
15:00 +30°C° 0.9 mm 1 mps 722 mmHg 86%
16:00 +31°C° 0.9 mm 1 mps 722 mmHg 86%
17:00 +30°C° 0.6 mm 1 mps 722 mmHg 88%
18:00 +29°C° 0.6 mm 1 mps 722 mmHg 90%
19:00 +26°C° 0.6 mm 0 mps 722 mmHg 92%
20:00 +26°C° 0.5 mm 0 mps 722 mmHg 93%
21:00 +25°C° 0.5 mm 0 mps 722 mmHg 94%
22:00 +25°C° 0.5 mm 0 mps 722 mmHg 94%
23:00 +25°C° 0.9 mm 0 mps 722 mmHg 95%

9 July, Thursday

Time Temperature Precipitation Wind Pressure Humidity
00:00 +25°C° 0.9 mm 0 mps 722 mmHg 96%
01:00 +25°C° 0.9 mm 0 mps 721 mmHg 96%
02:00 +24°C° 1.6 mm 0 mps 721 mmHg 97%
03:00 +24°C° 1.6 mm 0 mps 721 mmHg 97%
04:00 +24°C° 1.6 mm 0 mps 721 mmHg 97%
05:00 +24°C° 0.8 mm 0 mps 721 mmHg 97%
06:00 +25°C° 0.8 mm 0 mps 721 mmHg 96%
07:00 +25°C° 0.8 mm 0 mps 722 mmHg 96%
08:00 +25°C° 0.1 mm 0 mps 722 mmHg 95%
09:00 +26°C° 0.1 mm 0 mps 722 mmHg 93%
10:00 +26°C° 0.1 mm 0 mps 722 mmHg 92%
11:00 +29°C° 0.1 mm 1 mps 722 mmHg 88%
12:00 +30°C° 0.1 mm 1 mps 721 mmHg 84%
13:00 +31°C° 0.1 mm 1 mps 721 mmHg 80%
14:00 +31°C° 0.5 mm 1 mps 720 mmHg 82%
15:00 +30°C° 0.5 mm 1 mps 720 mmHg 84%
16:00 +30°C° 0.5 mm 1 mps 720 mmHg 87%
17:00 +29°C° 0.5 mm 1 mps 720 mmHg 90%
18:00 +28°C° 0.5 mm 1 mps 720 mmHg 92%
19:00 +28°C° 0.5 mm 1 mps 720 mmHg 95%
20:00 +27°C° 1.2 mm 1 mps 720 mmHg 96%
21:00 +27°C° 1.2 mm 1 mps 721 mmHg 96%
22:00 +27°C° 1.2 mm 1 mps 721 mmHg 97%
23:00 +26°C° 1.4 mm 1 mps 721 mmHg 97%

10 July, Friday

Time Temperature Precipitation Wind Pressure Humidity
00:00 +26°C° 1.4 mm 1 mps 721 mmHg 98%
01:00 +26°C° 1.4 mm 1 mps 720 mmHg 98%
02:00 +24°C° 0.3 mm 0 mps 720 mmHg 98%
03:00 +24°C° 0.3 mm 0 mps 720 mmHg 98%
04:00 +24°C° 0.3 mm 0 mps 720 mmHg 98%
05:00 +24°C° 0 mm 0 mps 720 mmHg 97%
06:00 +25°C° 0 mm 0 mps 721 mmHg 95%
07:00 +25°C° 0 mm 0 mps 721 mmHg 94%
08:00 +29°C° 0.3 mm 1 mps 721 mmHg 89%
09:00 +30°C° 0.3 mm 1 mps 721 mmHg 84%
10:00 +31°C° 0.3 mm 1 mps 722 mmHg 79%
11:00 +32°C° 1.2 mm 1 mps 721 mmHg 77%
12:00 +32°C° 1.2 mm 1 mps 721 mmHg 76%
13:00 +34°C° 1.2 mm 2 mps 721 mmHg 74%
14:00 +33°C° 1.1 mm 1 mps 720 mmHg 76%
15:00 +32°C° 1.1 mm 1 mps 720 mmHg 77%
16:00 +32°C° 1.1 mm 1 mps 719 mmHg 78%
17:00 +31°C° 0.5 mm 1 mps 720 mmHg 83%
18:00 +29°C° 0.5 mm 1 mps 720 mmHg 87%
19:00 +28°C° 0.5 mm 1 mps 720 mmHg 91%
20:00 +27°C° 0.1 mm 1 mps 720 mmHg 92%
21:00 +27°C° 0.1 mm 1 mps 720 mmHg 93%
22:00 +27°C° 0.1 mm 1 mps 721 mmHg 94%
23:00 +26°C° 0.1 mm 1 mps 720 mmHg 94%

11 July, Saturday

Time Temperature Precipitation Wind Pressure Humidity
00:00 +26°C° 0.1 mm 1 mps 720 mmHg 95%
01:00 +26°C° 0.1 mm 1 mps 719 mmHg 95%
02:00 +26°C° 0 mm 1 mps 719 mmHg 95%
03:00 +26°C° 0 mm 1 mps 719 mmHg 95%
04:00 +24°C° 0 mm 0 mps 719 mmHg 95%
05:00 +26°C° 0 mm 1 mps 719 mmHg 94%
06:00 +27°C° 0 mm 1 mps 720 mmHg 92%
07:00 +28°C° 0 mm 1 mps 720 mmHg 91%
08:00 +30°C° 0 mm 1 mps 720 mmHg 81%
09:00 +31°C° 0 mm 2 mps 720 mmHg 72%
10:00 +34°C° 0 mm 2 mps 720 mmHg 63%
11:00 +35°C° 0.2 mm 3 mps 720 mmHg 62%
12:00 +35°C° 0.2 mm 3 mps 720 mmHg 61%
13:00 +35°C° 0.2 mm 4 mps 719 mmHg 60%
14:00 +35°C° 0.1 mm 4 mps 719 mmHg 61%
15:00 +35°C° 0.1 mm 4 mps 719 mmHg 63%
16:00 +34°C° 0.1 mm 4 mps 719 mmHg 65%
17:00 +33°C° 0 mm 3 mps 719 mmHg 71%
18:00 +30°C° 0 mm 2 mps 719 mmHg 77%
19:00 +28°C° 0 mm 1 mps 719 mmHg 83%
20:00 +28°C° 0 mm 1 mps 720 mmHg 85%
21:00 +27°C° 0 mm 1 mps 720 mmHg 87%
22:00 +27°C° 0 mm 1 mps 721 mmHg 88%
23:00 +27°C° 0 mm 1 mps 720 mmHg 89%
Show more